Back to catalog

COSMOS 1754

AliveNavigationLEO
NORAD 16764·PAYLOAD·🇷🇺 Russia

Launched Jun 6, 1986 from Plesetsk Cosmodrome

Loading…

Next Passes (next 24 hours)

TLE

FreshSource: Space-Track

Epoch: Sep 14, 2026, 08:28 UTC

1 16764U 86042G   26257.35340211 -.00000008  00000-0  54711-4 0  9996
2 16764  74.0154 108.3090 0020786 237.9877 295.5520 12.52612469666255

Track COSMOS 1754 in real time with AllMySat

Download on the App Store